When you browse on this site, cookies collect data to enhance your experience and personalize the content and advertising you see.
Visit our Privacy Policy to learn more. By continuing to use the site, you agree to this use of cookies and data.
  • In Lithuania
  • List of Countries
  • For 7 days
  • Water Temperature
  • Satellite Maps
  • Weather Map
  • Weather Widgets
  • user-avatar
    Login

    Hourly Weather Starotolucheevo

    Today, 22 July, Monday

    Time Temperature Precipitation Wind Pressure Humidity
    00:00 +21°C° 0 mm 1 mps 755 mmHg 70%
    01:00 +20°C° 0 mm 1 mps 755 mmHg 71%
    02:00 +20°C° 0 mm 1 mps 755 mmHg 72%
    03:00 +20°C° 0 mm 1 mps 755 mmHg 73%
    04:00 +20°C° 0.2 mm 1 mps 755 mmHg 75%
    05:00 +20°C° 0.2 mm 1 mps 755 mmHg 77%
    06:00 +20°C° 0.2 mm 1 mps 755 mmHg 79%
    07:00 +21°C° 0 mm 2 mps 755 mmHg 72%
    08:00 +24°C° 0 mm 2 mps 755 mmHg 65%
    09:00 +26°C° 0 mm 2 mps 755 mmHg 59%
    10:00 +27°C° 0 mm 2 mps 755 mmHg 53%
    11:00 +28°C° 0 mm 3 mps 755 mmHg 48%
    12:00 +29°C° 0 mm 3 mps 755 mmHg 42%
    13:00 +29°C° 0 mm 3 mps 754 mmHg 40%
    14:00 +30°C° 0 mm 3 mps 754 mmHg 38%
    15:00 +30°C° 0 mm 3 mps 754 mmHg 35%
    16:00 +30°C° 0 mm 3 mps 754 mmHg 38%
    17:00 +29°C° 0 mm 3 mps 754 mmHg 40%
    18:00 +29°C° 0 mm 2 mps 753 mmHg 42%
    19:00 +27°C° 0 mm 2 mps 753 mmHg 48%
    20:00 +25°C° 0 mm 1 mps 753 mmHg 54%
    21:00 +22°C° 0 mm 1 mps 753 mmHg 59%
    22:00 +22°C° 0 mm 1 mps 753 mmHg 62%
    23:00 +21°C° 0 mm 1 mps 753 mmHg 64%

    Tomorrow, 23 July, Tuesday

    Time Temperature Precipitation Wind Pressure Humidity
    00:00 +20°C° 0 mm 1 mps 754 mmHg 67%
    01:00 +20°C° 0 mm 1 mps 753 mmHg 68%
    02:00 +19°C° 0 mm 2 mps 753 mmHg 69%
    03:00 +19°C° 0 mm 2 mps 753 mmHg 70%
    04:00 +19°C° 0 mm 2 mps 753 mmHg 70%
    05:00 +19°C° 0 mm 2 mps 753 mmHg 71%
    06:00 +20°C° 0 mm 2 mps 753 mmHg 71%
    07:00 +23°C° 0 mm 2 mps 752 mmHg 64%
    08:00 +25°C° 0 mm 3 mps 752 mmHg 56%
    09:00 +27°C° 0 mm 3 mps 752 mmHg 49%
    10:00 +29°C° 0 mm 3 mps 752 mmHg 45%
    11:00 +30°C° 0 mm 3 mps 752 mmHg 40%
    12:00 +31°C° 0 mm 3 mps 751 mmHg 36%
    13:00 +31°C° 0 mm 3 mps 751 mmHg 36%
    14:00 +31°C° 0 mm 3 mps 750 mmHg 35%
    15:00 +31°C° 0 mm 3 mps 750 mmHg 35%
    16:00 +31°C° 0 mm 3 mps 750 mmHg 37%
    17:00 +30°C° 0 mm 3 mps 750 mmHg 40%
    18:00 +30°C° 0 mm 3 mps 750 mmHg 42%
    19:00 +28°C° 0 mm 2 mps 750 mmHg 43%
    20:00 +27°C° 0 mm 2 mps 750 mmHg 43%
    21:00 +26°C° 0 mm 2 mps 750 mmHg 44%
    22:00 +25°C° 0 mm 2 mps 750 mmHg 51%
    23:00 +24°C° 0 mm 1 mps 750 mmHg 58%

    Day after tomorrow, 24 July, Wednesday

    Time Temperature Precipitation Wind Pressure Humidity
    00:00 +23°C° 0 mm 1 mps 750 mmHg 65%
    01:00 +22°C° 0 mm 1 mps 750 mmHg 67%
    02:00 +22°C° 0 mm 1 mps 750 mmHg 69%
    03:00 +22°C° 0 mm 1 mps 750 mmHg 72%
    04:00 +21°C° 0 mm 2 mps 750 mmHg 70%
    05:00 +21°C° 0 mm 2 mps 750 mmHg 69%
    06:00 +23°C° 0 mm 2 mps 750 mmHg 68%
    07:00 +25°C° 0 mm 2 mps 750 mmHg 61%
    08:00 +27°C° 0 mm 3 mps 750 mmHg 54%
    09:00 +29°C° 0 mm 3 mps 750 mmHg 47%
    10:00 +29°C° 0 mm 3 mps 750 mmHg 45%
    11:00 +30°C° 0 mm 4 mps 750 mmHg 43%
    12:00 +30°C° 0 mm 4 mps 750 mmHg 40%
    13:00 +30°C° 0.1 mm 4 mps 750 mmHg 44%
    14:00 +29°C° 0.1 mm 4 mps 750 mmHg 48%
    15:00 +28°C° 0.1 mm 4 mps 750 mmHg 52%
    16:00 +27°C° 0.2 mm 4 mps 750 mmHg 57%
    17:00 +27°C° 0.2 mm 4 mps 750 mmHg 62%
    18:00 +26°C° 0.2 mm 3 mps 750 mmHg 67%
    19:00 +24°C° 0.2 mm 3 mps 750 mmHg 74%
    20:00 +22°C° 0.2 mm 4 mps 750 mmHg 82%
    21:00 +20°C° 0.2 mm 4 mps 750 mmHg 89%
    22:00 +20°C° 0.5 mm 4 mps 750 mmHg 91%
    23:00 +20°C° 0.5 mm 3 mps 750 mmHg 92%

    25 July, Thursday

    Time Temperature Precipitation Wind Pressure Humidity
    00:00 +19°C° 0.5 mm 3 mps 750 mmHg 93%
    01:00 +19°C° 0.9 mm 4 mps 750 mmHg 92%
    02:00 +20°C° 0.9 mm 4 mps 750 mmHg 91%
    03:00 +20°C° 0.9 mm 4 mps 750 mmHg 89%
    04:00 +20°C° 0.1 mm 4 mps 750 mmHg 86%
    05:00 +20°C° 0.1 mm 4 mps 750 mmHg 83%
    06:00 +20°C° 0.1 mm 4 mps 750 mmHg 80%
    07:00 +21°C° 0 mm 5 mps 750 mmHg 76%
    08:00 +22°C° 0 mm 5 mps 750 mmHg 73%
    09:00 +22°C° 0 mm 6 mps 750 mmHg 70%
    10:00 +23°C° 0 mm 6 mps 750 mmHg 68%
    11:00 +24°C° 0 mm 6 mps 751 mmHg 65%
    12:00 +26°C° 0 mm 5 mps 751 mmHg 63%
    13:00 +24°C° 0.5 mm 6 mps 751 mmHg 65%
    14:00 +24°C° 0.5 mm 6 mps 751 mmHg 68%
    15:00 +23°C° 0.5 mm 6 mps 751 mmHg 70%
    16:00 +22°C° 1 mm 6 mps 751 mmHg 75%
    17:00 +21°C° 1 mm 6 mps 751 mmHg 79%
    18:00 +20°C° 1 mm 6 mps 751 mmHg 83%
    19:00 +20°C° 0.9 mm 6 mps 751 mmHg 86%
    20:00 +19°C° 0.9 mm 5 mps 751 mmHg 90%
    21:00 +19°C° 0.9 mm 5 mps 752 mmHg 94%
    22:00 +19°C° 1.1 mm 4 mps 752 mmHg 94%
    23:00 +18°C° 1.1 mm 4 mps 752 mmHg 95%

    26 July, Friday

    Time Temperature Precipitation Wind Pressure Humidity
    00:00 +18°C° 1.1 mm 3 mps 752 mmHg 96%
    01:00 +18°C° 2.1 mm 4 mps 752 mmHg 96%
    02:00 +18°C° 2.1 mm 4 mps 752 mmHg 95%
    03:00 +17°C° 2.1 mm 5 mps 751 mmHg 95%
    04:00 +18°C° 1 mm 4 mps 751 mmHg 95%
    05:00 +18°C° 1 mm 4 mps 751 mmHg 94%
    06:00 +18°C° 1 mm 4 mps 751 mmHg 94%
    07:00 +19°C° 1 mm 4 mps 751 mmHg 94%
    08:00 +19°C° 1 mm 4 mps 751 mmHg 93%
    09:00 +19°C° 1 mm 4 mps 751 mmHg 92%
    10:00 +19°C° 0.7 mm 4 mps 751 mmHg 92%
    11:00 +19°C° 0.7 mm 4 mps 751 mmHg 92%
    12:00 +20°C° 0.7 mm 4 mps 751 mmHg 92%
    13:00 +21°C° 0.4 mm 3 mps 750 mmHg 87%
    14:00 +22°C° 0.4 mm 3 mps 750 mmHg 83%
    15:00 +22°C° 0.4 mm 3 mps 750 mmHg 78%
    16:00 +22°C° 0.1 mm 3 mps 750 mmHg 78%
    17:00 +23°C° 0.1 mm 2 mps 749 mmHg 77%
    18:00 +23°C° 0.1 mm 2 mps 749 mmHg 76%
    19:00 +23°C° 0.1 mm 2 mps 749 mmHg 79%
    20:00 +22°C° 0.1 mm 1 mps 749 mmHg 81%
    21:00 +19°C° 0.1 mm 0 mps 749 mmHg 84%
    22:00 +21°C° 0.3 mm 1 mps 749 mmHg 86%
    23:00 +21°C° 0.3 mm 1 mps 749 mmHg 87%

    27 July, Saturday

    Time Temperature Precipitation Wind Pressure Humidity
    00:00 +19°C° 0.3 mm 2 mps 749 mmHg 89%
    01:00 +19°C° 0 mm 2 mps 748 mmHg 90%
    02:00 +19°C° 0 mm 2 mps 748 mmHg 92%
    03:00 +19°C° 0 mm 2 mps 748 mmHg 93%
    04:00 +19°C° 0 mm 2 mps 748 mmHg 93%
    05:00 +19°C° 0 mm 2 mps 748 mmHg 92%
    06:00 +19°C° 0 mm 3 mps 748 mmHg 92%
    07:00 +20°C° 0.5 mm 3 mps 747 mmHg 88%
    08:00 +20°C° 0.5 mm 3 mps 747 mmHg 85%
    09:00 +21°C° 0.5 mm 3 mps 747 mmHg 82%
    10:00 +23°C° 1.4 mm 4 mps 747 mmHg 75%
    11:00 +25°C° 1.4 mm 4 mps 747 mmHg 69%
    12:00 +26°C° 1.4 mm 5 mps 747 mmHg 62%
    13:00 +27°C° 0.4 mm 5 mps 746 mmHg 61%
    14:00 +27°C° 0.4 mm 5 mps 746 mmHg 60%
    15:00 +27°C° 0.4 mm 5 mps 746 mmHg 59%
    16:00 +26°C° 0.7 mm 4 mps 746 mmHg 63%
    17:00 +25°C° 0.7 mm 4 mps 746 mmHg 68%
    18:00 +23°C° 0.7 mm 4 mps 745 mmHg 72%
    19:00 +22°C° 0.1 mm 4 mps 746 mmHg 75%
    20:00 +20°C° 0.1 mm 4 mps 746 mmHg 79%
    21:00 +19°C° 0.1 mm 4 mps 746 mmHg 83%
    22:00 +18°C° 0 mm 4 mps 746 mmHg 84%
    23:00 +17°C° 0 mm 3 mps 746 mmHg 85%
    Show more